Weather in Sokol

Russia / Magadan District     59°55′04″N   150°45′03″E
temp.,
°C
wind,
m/s
gust,
m/s
humid.,
%
clouds,
%
prec.,
mm/h
press.,
hPa
HPBL,
m
6 march, sat
sat623:00−30nne226827 0.0 100919
02:00−30nne226029 0.0 100819
05:00−30nne225914 0.0 100919
08:00−30nne23610 0.0 100919
11:00−24nne34684 0.0 1008207
14:00−21nne465322 0.0 10081086
17:00−23n457045 0.0 1007136
20:00−28n557199 0.0 100838
7 march, sun
sun723:00−29n457299 0.0 100935
02:00−29n457398 0.0 100849
05:00−30n447093 0.0 100826
08:00−30n347061 0.0 100823
11:00−23nnw347077 0.0 1008209
14:00−20nnw4664100 0.0 1006655
17:00−21nnw237558 0.0 100533
20:00−27nne33670 0.0 100719
8 march, mon
mon823:00−28n22610 0.0 100719
02:00−28nne225853 0.0 100719
05:00−29n225737 0.0 100720
08:00−29n22570 0.0 100720
11:00−22nnw22620 0.0 1006164
14:00−18nnw23590 0.0 1005490
17:00−19nnw23730 0.0 100534
20:00−26nne33640 0.0 100720
9 march, tue
tue923:00−28nne33580 0.0 100820
02:00−28nne23550 0.0 100820
05:00−28n22520 0.0 100920
08:00−28nne115034 0.0 101020
11:00−22wnw104321 0.0 1010136
14:00−19wsw21540 0.0 1010281
17:00−20sw11780 0.0 101020
20:00−27ese11860 0.0 101320
10 march, wed
wed1023:00−28ne11820 0.0 101420
02:00−29e11770 0.0 101520
05:00−29ene11740 0.0 101719
08:00−29ene01710 0.0 101819
11:00−23ssw10600 0.0 1019162
14:00−21sw21700 0.0 1018304
17:00−21wsw11850 0.0 101820
20:00−28ene00960 0.0 102020